COSMOS 1275 DEB

Satellite information

Favourite Embed

Satellite Type and Status

DEBRISIN ORBIT

Key statistics

Satellite COSMOS 1275 DEB at a glance.

Uptime

16264

Days in orbit

Revolutions

≈ 13.9

Per day

Orbit

LEO

Low Earth Orbit

Inclination

82.9

Latest

Satellite identification and parameters

Extended collection of information and parameters for COSMOS 1275 DEB.

Object identification

Identified? True

Debris? True

Object name: COSMOS 1275 DEB

International designator: 1981-053SX

Object number (NORAD): 42183

Object ID (CCSDS): 42183

Country: COMMONWEALTH OF INDEPENDENT STATES (CIS)

Current information (Y/N): Y

RCS size: SMALL

Orbital parameters

Period: 103.809 minutes

Inclination: 82.9423 deg

SMA: 7316.719 km

Apoapsis: 973.332 km

Periapsis: 903.836 km

RAAN: 353.2433 deg

Eccentricy: 0.0047491

Argument of periapsis: 259.8472 deg

Mean anomaly: 120.5786 deg

Mean motion: 13.87165307 rev/day

Mean motion (dot): 0.00001852 rev/day2

B* drag term: 0.0015521 1/REarth

Two-line elements (TLE)

Creation date: Dec. 9, 2025, 3:16 p.m.

Reference frame: TEME

Reference center: EARTH

Epoch: Dec. 9, 2025, 7:13 a.m. UTC

TLE line 0: 0 COSMOS 1275 DEB

TLE line 1: 1 42183U 81053SX 25343.30120404 .00001852 00000-0 15521-2 0 9998

TLE line 2: 2 42183 82.9423 353.2433 0047491 259.8472 120.5786 13.87165307588295

Live tracking on map

Real-time ground track for satellite COSMOS 1275 DEB.

In-orbit conjunctions

A list of the most updated potential collisions computed for object COSMOS 1275 DEB.

Target Orbit TCA Probability of collision Miss distance Type
COSMOS 626 LEO 2025-06-17 04:54:23 0.0002028959 672.0 (m) PAYLOAD
SL-8 R/B LEO 2024-08-18 10:06:09 0.0002330957 96.0 (m) ROCKET BODY
NIMBUS 2 DEB SSO 2024-07-29 11:48:47 0.0001017905 241.0 (m) DEBRIS
FENGYUN 1C DEB SSO 2024-06-23 10:25:43 0.0001381644 90.0 (m) DEBRIS

Associated space launch

Navigation satellite providing location information for the Tsiklon-B navigation system

COSMOS 1275 DEB was lifted into orbit during the mission ‘Kosmos-3M | Parus 27’, on board a Kosmos-3M space rocket.

The launch took place on June 4, 1981, 3:41 p.m. from 132/2.

For more information about the launch, click the button.

Launch to space Kosmos-3M | Parus 27
Kosmos-3M | Parus 27

Agency: N/A

Status: Launch Successful

Launch date: June 4, 1981, 3:41 p.m. UTC

Rocket: Kosmos-3M

Launch pad: 132/2

Location: Plesetsk Cosmodrome, Russian Federation

...

Latest news about this satellite

There are no fresh news available about this satellite. Check back as we update our databases every day.


Newsletter sign-up

Weekly statistics, charts and insights to help you stay on top of the space industry.